This is the latest recevied weather packets stored in our database for station/object YC0ACE-13. If no packets are shown the sender has not sent any weather packets the latest 10 day(s).
| Time | Temp. | Humidity | Pressure | Rain* | Wind** | Luminosity | Snow |
|---|---|---|---|---|---|---|---|
| 1777717225 | 26.67° C | 97% | 1012.9 hPa | 0 mm | - | 16 W/m² | - |
| 1777716925 | 26.67° C | 97% | 1013.2 hPa | 0 mm | - | 20 W/m² | - |
| 1777716624 | 26.67° C | 97% | 1012.9 hPa | 0 mm | - | 23 W/m² | - |
| 1777716324 | 26.67° C | 97% | 1012.9 hPa | 0 mm | - | 25 W/m² | - |
| 1777716025 | 26.67° C | 97% | 1012.9 hPa | 0 mm | - | 29 W/m² | - |
| 1777715725 | 26.67° C | 97% | 1012.9 hPa | 0 mm | - | 39 W/m² | - |
| 1777715425 | 26.11° C | 97% | 1012.9 hPa | 0 mm | - | 45 W/m² | - |
| 1777715125 | 26.67° C | 97% | 1012.5 hPa | 0 mm | - | 50 W/m² | - |
| 1777714824 | 26.11° C | 97% | 1012.9 hPa | 0 mm | - | 52 W/m² | - |
| 1777714525 | 26.11° C | 97% | 1012.5 hPa | 0 mm | - | 58 W/m² | - |
| 1777714224 | 26.11° C | 97% | 1012.5 hPa | 1.78 mm | - | 62 W/m² | - |
| 1777713924 | 26.11° C | 97% | 1012.9 hPa | 1.78 mm | - | 58 W/m² | - |
| 1777713626 | 26.11° C | 97% | 1012.5 hPa | 1.27 mm | - | 59 W/m² | - |
| 1777713325 | 26.11° C | 97% | 1012.5 hPa | 3.05 mm | - | 55 W/m² | - |
| 1777713025 | 26.11° C | 97% | 1012.5 hPa | 3.05 mm | - | 48 W/m² | - |
| 1777712724 | 25.56° C | 97% | 1012.9 hPa | 3.05 mm | - | 46 W/m² | - |
| 1777712424 | 25.56° C | 97% | 1012.9 hPa | 6.1 mm | - | 31 W/m² | - |
| 1777712125 | 25.56° C | 97% | 1012.9 hPa | 18.03 mm | - | 43 W/m² | - |
| 1777711824 | 25.56° C | 97% | 1012.5 hPa | 26.42 mm | - | 41 W/m² | - |
| 1777711524 | 25.56° C | 97% | 1012.5 hPa | 24.64 mm | - | 36 W/m² | - |
| 1777711224 | 25.56° C | 96% | 1012.9 hPa | 14.99 mm | - | 31 W/m² | - |
| 1777710924 | 25.56° C | 96% | 1012.5 hPa | 1.27 mm | - | 36 W/m² | - |
| 1777710626 | 25.56° C | 97% | 1012.5 hPa | 3.56 mm | - | 36 W/m² | - |
| 1777710324 | 25.56° C | 96% | 1012.9 hPa | 6.6 mm | - | 36 W/m² | - |
| 1777710024 | 25.56° C | 96% | 1012.9 hPa | 6.1 mm | - | 40 W/m² | - |
* Rain latest hour (hover to see other rain measurements)
** Current wind speed in m/s (hover to see current wind gust speed)